Weather History for EGHE - October, 2012

Change the Weather History Date:

Wednesday, October 24, 2012

  Actual Average Record
Temperature  
Mean Temperature 56 °F -  
Max Temperature 57 °F 52 °F 60 °F (1998)
Min Temperature 55 °F 50 °F 46 °F (2003)
Degree Days  
Heating Degree Days 9    
Growing Degree Days 6 (Base 50)    
Moisture  
Dew Point 54 °F    
Average Humidity 95    
Maximum Humidity 100    
Minimum Humidity 82    
Precipitation  
Precipitation 0.01 in - - ()
Sea Level Pressure  
Sea Level Pressure 30.04 in    
Wind  
Wind Speed 9 mph ()    
Max Wind Speed 17 mph    
Max Gust Speed -    
Visibility 5.0 miles    
Events      
Averages and records for this station are not official NWS values.
T = Trace of Precipitation, MM = Missing Value Source: Averaged Metar Reports

Daily Weather History Graph

Daily Weather History Graph

Search for Another Location

Airport or City:

Trip Planner

Search our weather history database for the weather conditions in past years. The results will help you decide how hot, cold, wet, or windy it might be!

Date:

Astronomy

Oct. 24, 2012 Rise Set
Actual Time 8:01 AM BST 6:15 PM BST
Civil Twilight 7:28 AM BST 6:49 PM BST
Nautical Twilight 6:51 AM BST 7:26 PM BST
Astronomical Twilight 6:13 AM BST 8:03 PM BST
Moon 3:49 PM BST (10/24) 2:13 AM BST (10/24)
Length of Visible Light 11h 20m
Length of Day
10h 13m
Waxing Gibbous, 74% of the Moon is Illuminated
Oct 24
Waxing Gibbous
Oct 29
Full
Nov 7
Last Quarter
Nov 13
New
Nov 20
First Quarter

Hourly Weather History & Observations

Time (BST) Temp. Dew Point Humidity Pressure Visibility Wind Dir Wind Speed Gust Speed Precip Events Conditions
12:50 AM 57 °F 56 °F 97% 30.19 in 3 mi East 5.8 mph - -   Mist
3:50 AM 56 °F 56 °F 99% 30.13 in 4 mi East 8.1 mph - -   Mist
6:50 AM 55 °F 55 °F 99% 30.10 in 3 mi East 6.9 mph - -   Mist
7:20 AM 55.4 °F 55.4 °F 100% 30.09 in 2.5 mi East 6.9 mph - N/A   Mostly Cloudy
7:50 AM 55.4 °F 55.4 °F 100% 30.09 in 1.6 mi East 9.2 mph - N/A   Mostly Cloudy
8:20 AM 55.4 °F 55.4 °F 100% 30.09 in 2.8 mi East 9.2 mph - N/A   Mostly Cloudy
8:50 AM 55.4 °F 55.4 °F 100% 30.09 in 2.5 mi East 9.2 mph - N/A   Mostly Cloudy
9:20 AM 55.4 °F 55.4 °F 100% 30.09 in 3.7 mi East 8.1 mph - N/A   Mostly Cloudy
9:50 AM 55 °F 54 °F 98% 30.09 in 6 mi East 9.2 mph - -   Mostly Cloudy
9:50 AM 55.4 °F 55.4 °F 100% 30.09 in 5.0 mi East 9.2 mph - N/A   Mostly Cloudy
10:20 AM 55.4 °F 55.4 °F 100% 30.09 in 4.3 mi East 8.1 mph - N/A   Mostly Cloudy
10:50 AM 55.4 °F 55.4 °F 100% 30.06 in 6.2 mi East 9.2 mph - N/A   Mostly Cloudy
11:20 AM 55.4 °F 55.4 °F 100% 30.06 in 6.2 mi East 10.4 mph - N/A   Mostly Cloudy
11:50 AM 55.4 °F 53.6 °F 94% 30.06 in 6.2 mi ENE 11.5 mph - N/A   Mostly Cloudy
12:20 PM 55.4 °F 53.6 °F 94% 30.06 in 6.2 mi NE 8.1 mph - N/A   Mostly Cloudy
12:50 PM 56 °F 54 °F 90% 30.04 in 12 mi ENE 10.4 mph - -   Overcast
12:50 PM 55.4 °F 53.6 °F 94% 30.04 in 6.2 mi ENE 9.2 mph - N/A   Mostly Cloudy
1:20 PM 55.4 °F 53.6 °F 94% 30.04 in 6.2 mi ENE 11.5 mph - N/A   Mostly Cloudy
1:50 PM 55.4 °F 53.6 °F 94% 30.01 in 5.0 mi ENE 11.5 mph - N/A   Mostly Cloudy
2:20 PM 55.4 °F 50.0 °F 82% 30.01 in 2.5 mi ENE 11.5 mph - N/A   Light Drizzle
2:50 PM 55.4 °F 53.6 °F 94% 29.98 in 5.6 mi East 13.8 mph - N/A   Mostly Cloudy
3:20 PM 55.4 °F 51.8 °F 88% 29.98 in 6.2 mi East 17.3 mph - N/A   Mostly Cloudy
3:50 PM 56 °F 53 °F 84% 29.99 in 7 mi ENE 12.7 mph - -   Overcast
3:50 PM 55.4 °F 53.6 °F 94% 29.98 in 5.6 mi East 13.8 mph - N/A   Mostly Cloudy
4:20 PM 55.4 °F 53.6 °F 94% 29.98 in 5.6 mi ENE 11.5 mph - N/A   Mostly Cloudy
4:50 PM 55.4 °F 53.6 °F 94% 29.98 in 5.0 mi NE 13.8 mph - N/A   Mostly Cloudy
5:20 PM 55.4 °F 53.6 °F 94% 29.98 in 3.7 mi ENE 11.5 mph - N/A   Mostly Cloudy
6:50 PM 55 °F 54 °F 93% 29.96 in 6 mi ENE 16.1 mph - -   Mist
9:50 PM 56 °F 53 °F 86% 29.94 in 5 mi ENE 16.1 mph - -   Light Haze